Regional Weather Roundup
Issued by NWS Albany, NY

Home | Current Version | Previous Version | Graphics & Text | Print | Product List | Glossary Off
Versions: 1 2 3 4 5 6 7 8 9 10 11 12 13 14 15 16 17 18 19 20 21 22 23 24 25 26 27

000
ASUS41 KALY 200810
RWRALY

NEW YORK STATE HOURLY WEATHER ROUNDUP
NATIONAL WEATHER SERVICE ALBANY NY
400 AM EDT SUN APR 20 2014

NOTE: "FAIR" INDICATES FEW OR NO CLOUDS BELOW 12,000 FEET WITH NO
SIGNIFICANT WEATHER AND/OR NO OBSTRUCTIONS TO VISIBILITY.

NYZ032-033-038>043-046>054-057>066-NYZ062>081-200900-
EAST


CITY           SKY/WX    TMP DP  RH WIND       PRES   REMARKS
ALBANY         PTCLDY    33  23  66 CALM      30.45R
GLENS FALLS    CLEAR     33  25  72 NW3       30.44R
POUGHKEEPSIE   CLEAR     37  27  67 S3        30.44R
MONTGOMERY     PTCLDY    40  26  57 NE7       30.43R
WHITE PLAINS   PTCLDY    45  24  43 E3        30.41R
ISLIP          PTCLDY    45  32  60 E7        30.40R
NEW YORK CITY  MOCLDY    47  34  60 NE12      30.41R
CENTRAL PARK   PTCLDY    49  33  54 E13       30.43R
$$

NYZ005>009-017-018-044>046-055-056-200900-
CENTRAL


CITY           SKY/WX    TMP DP  RH WIND       PRES   REMARKS
FULTON         CLEAR     30  27  88 CALM      30.44R
SYRACUSE       PTCLDY    32  29  88 CALM      30.44R
ROME           CLEAR     29  23  78 CALM      30.45R
ELMIRA         CLEAR     26  23  88 CALM      30.43R
BINGHAMTON     CLEAR     36  26  67 NE5       30.39R WCI  32
MONTICELLO     PTCLDY    36  25  64 NE5       30.42R WCI  32
$$

NYZ026>034-041>043-200900-
NORTH


CITY           SKY/WX    TMP DP  RH WIND       PRES   REMARKS
WATERTOWN      CLEAR     27  22  81 CALM      30.44R
FORT DRUM      NOT AVBL
MASSENA        CLEAR     25  22  88 CALM      30.47R
SARANAC LAKE   CLEAR     17  15  92 CALM      30.40R
PLATTSBURGH    CLEAR     26  21  81 CALM      30.46S
$$

NYZ001>004-010>016-019>021-200900-
WEST


CITY           SKY/WX    TMP DP  RH WIND       PRES   REMARKS
NIAGARA FALLS  CLEAR     34  25  69 MISG      30.39F
BUFFALO        PTCLDY    37  25  61 E10       30.38F WCI  30
DUNKIRK        CLEAR     34  26  72 CALM      30.36S
JAMESTOWN      CLEAR     39  25  56 E6        30.34F WCI  35
WELLSVILLE     CLEAR     32  23  69 SE5       30.38R WCI  27
ROCHESTER      CLEAR     34  28  79 CALM      30.43S
PENN YAN       CLEAR     32  28  85 CALM      30.42R
$$

             KEY
       WCI = WIND CHILL INDEX
       VSB = VISIBILITY
       HX  = HEAT INDEX
$$



USA.gov is the U.S. government's official web portal to all federal, state and local government web resources and services.